STARLINK-5098 (54013 NORAD) Tracking and Keplerian Element Data

This shows tracking and keplerian element data for the satellite.

Feedback or suggestion? Click here.




ElementValue
Catalog54013
NameSTARLINK-5098
Epoch Orbit130
Epoch Day324.91667824
Epoch Year2022
RAAN224.1635
Inclination53.2151
Eccentricity0.0002237
Argument of Perigee27.0717
Mean Anonmoly181.2974
Mean Motion15.73252555
Decay Rate-0.0006638
L11 54013U 22125BB 22324.91667824 -.00066380 00000+0 -47114-3 0 9995
L22 54013 53.2151 224.1635 0002237 27.0717 181.2974 15.73252555 1309



Live tracking and technical data element details for STARLINK-5098 (NORAD 54013). STARLINK-5098 can be tracked NOW for your location showing map with azimuth and elevation plus other details from your city location.







IsCatalogInMostPopularTable: catalog: 54013, numindb: 3
Update: records affected: 1



GetName: 54013 STARLINK-5098

Hit Count: updated at: Mon, 28 Nov 2022 21:55:03 GMT